Location: Newark
(13.8117°N, 3.6025°W)
Time: 14:32:16
(UTC+00:00)

Explorer 11/Cluster Stage 4 - Pass Details

Date: 31 August 2019
Orbit: 467 x 1260 km, 28.8° (Epoch: 21 September)

Event Time Altitude Azimuth Distance (km) Brightness Sun altitude
Rises 09:54:01 0° 301° (WNW) 3,736 9.7 55.1°
Reaches altitude 10° 09:57:05 10° 314° (NW) 2,906 9.3 55.9°
Maximum altitude 10:03:04 26° 9° (N) 2,112 9.2 57.3°
Drops below altitude 10° 10:09:38 10° 62° (ENE) 3,208 10.3 58.9°
Sets 10:13:12 0° 74° (ENE) 4,198 10.7 59.8°
